NOAA 16 DEB, 41711

Orbit data source: Space-Track

NOAA 16 DEB, 41711 is space debris in SSO originally from a launch on Thu, 21 Sep 2000 UTC launched from the Air Force Western Test Range (AFWTR). Debris objects in space refer to the collection of defunct objects orbiting the Earth. Examples of debris include non-operational satellites, rocket bodies, and fragments generated from explosions, collisions, or faulty payload assembly.

Loading next visibility...
Identifier
41711, 2000-055PR
Orbit
SSO
Country
Flag of USUS
Related business
Manufacturer
Unknown
Mission
Spacecraft
Bus & Motor
Unknown
Mass
Unknown
Launch date (UTC)
2000-09-21 (26 years ago)
Launch vehicle
Unknown
Launch site
Air Force Western Test Range (AFWTR)
Object type
Payload
Rocket body
Debris
Shape & HBR
Unknown shape, 0.1 m
Radar Cross Section
Medium (>0.1 m² and <1 m²)

Expand to show TLE details & history
Last TLE update: 3 days ago

TLE from 3 days ago
0 NOAA 16 DEB
1 41711U 00055PR  26170.61535810  .00007003  00000-0  18366-2 0  9995
2 41711  98.7947 297.8840 0012340 164.0456 196.1128 14.49503828528483
Epoch: 2026-06-19T14:46Z
TLE epoch observation values (Epoch: 2026-06-19T14:46:06.939Z)
Latitude
0.00001°
Longitude
168.5133°
Altitude
738.648 km
Speed
7.481 km/s
True Right ascension
19h 51m 32s
True Declination
0° 00' 00"
Sunlit
Object was in full shadow at epoch
Visualization orbit readout
Latitude
Unknown
Longitude
Unknown
Altitude
Unknown
Speed
Unknown
Apparent Right ascension
Unknown
Apparent Declination
Unknown
Sunlit
N/A
Visualization observer readout
Local Sidereal Time
21:40:36
Azimuth
Unknown
Elevation
Unknown
Doppler factor
Unknown
Orbital elements
Apogee altitude
733.157 km
Perigee altitude
715.628 km
Semi-major axis
7,102.53 km
Eccentricity
0.00123
Inclination
98.7947°
RAAN
297.884°
Arg. of periapsis
164.0456°
True anomaly
196.07361°
Mean anomaly
196.1128°
Eccentric anomaly
196.0932°
Mean motion
3.62596 °/min
Orbital period
99.28 mins
BSTAR
0.0018366
Loading maneuver chart data...
Computing Atmospheric mass density...
Loading historical data...
Loading historical data...
Loading historical data...
Loading historical data...
Loading historical data...
Loading historical data...
Loading historical data...

Documentation

Showing up to 5 results
|